Powrót do katalogu

CZ-6A DEB

AktywnyPO
NORAD 55216·DEBRIS·🇨🇳 China

Wystrzelony Nov 11, 2022 z Taiyuan Satellite Launch Center

Loading…

Następne Przeloty (najbliższe 24 godziny)

TLE

ŚwieżeSource: Space-Track

Epoka: Sep 14, 2026, 02:26 UTC

1 55216U 22151WH  26257.10159114  .00006107  00000-0  10807-2 0  9996
2 55216  98.6049 316.1973 0072124  31.5121 329.0371 14.66036682197437

Śledź CZ-6A DEB w czasie rzeczywistym z AllMySat

Download on the App Store